Time,TemperatureF,DewpointF,PressureIn,WindDirection,WindDirectionDegrees,WindSpeedMPH,WindSpeedGustMPH,Humidity,HourlyPrecipIn,Conditions,Clouds,dailyrainin,SoftwareType,DateUTC
2013-06-13 00:01:00,65.3,48.7,29.63,NE,45,2.0,5.9,55,0.00,CLR,,0.00,WeatherDisplay:10.37,2013-06-13 04:01:00,
2013-06-13 00:02:00,65.1,48.5,29.62,NE,45,2.0,5.9,55,0.00,CLR,,0.00,WeatherDisplay:10.37,2013-06-13 04:02:00,
2013-06-13 00:04:00,64.9,48.4,29.62,NE,45,3.3,5.9,55,0.00,CLR,,0.00,WeatherDisplay:10.37,2013-06-13 04:04:00,
2013-06-13 00:05:00,64.9,48.4,29.61,NE,45,3.3,5.9,55,0.00,CLR,,0.00,WeatherDisplay:10.37,2013-06-13 04:05:00,
2013-06-13 00:07:00,64.9,48.4,29.61,NE,45,3.3,5.9,55,0.00,CLR,,0.00,WeatherDisplay:10.37,2013-06-13 04:07:00,
2013-06-13 00:12:00,64.6,48.0,29.61,NE,45,3.6,4.0,55,0.00,CLR,,0.00,WeatherDisplay:10.37,2013-06-13 04:12:00,
2013-06-13 00:17:00,64.4,47.9,29.58,East,90,5.1,5.1,55,0.00,CLR,,0.00,WeatherDisplay:10.37,2013-06-13 04:17:00,
2013-06-13 00:22:00,64.4,47.9,29.58,ENE,67,4.7,5.1,55,0.00,CLR,,0.00,WeatherDisplay:10.37,2013-06-13 04:22:00,
2013-06-13 00:27:00,63.9,47.4,29.59,ENE,67,4.7,5.1,55,0.00,CLR,,0.00,WeatherDisplay:10.37,2013-06-13 04:27:00,
2013-06-13 00:32:00,63.9,47.4,29.59,NE,45,3.8,5.1,55,0.00,CLR,,0.00,WeatherDisplay:10.37,2013-06-13 04:32:00,
2013-06-13 00:37:00,63.9,47.4,29.59,NE,45,3.3,5.1,55,0.00,CLR,,0.00,WeatherDisplay:10.37,2013-06-13 04:37:00,
2013-06-13 00:42:00,63.9,47.4,29.60,NE,45,4.0,5.1,55,0.00,CLR,,0.00,WeatherDisplay:10.37,2013-06-13 04:42:00,
2013-06-13 00:47:00,63.9,47.4,29.60,ESE,112,4.7,5.1,55,0.00,CLR,,0.00,WeatherDisplay:10.37,2013-06-13 04:47:00,
2013-06-13 00:52:00,63.9,47.4,29.60,NNW,337,3.6,5.1,55,0.00,CLR,,0.00,WeatherDisplay:10.37,2013-06-13 04:52:00,
2013-06-13 00:57:00,63.9,47.4,29.60,ENE,67,2.4,5.1,55,0.00,CLR,,0.00,WeatherDisplay:10.37,2013-06-13 04:57:00,
2013-06-13 01:02:00,63.9,47.4,29.60,NE,45,2.6,5.1,55,0.00,CLR,,0.00,WeatherDisplay:10.37,2013-06-13 05:02:00,
2013-06-13 01:07:00,63.9,47.4,29.59,NE,45,2.0,5.1,55,0.00,CLR,,0.00,WeatherDisplay:10.37,2013-06-13 05:07:00,
2013-06-13 01:12:00,63.9,47.4,29.59,NE,45,2.0,5.1,55,0.00,CLR,,0.00,WeatherDisplay:10.37,2013-06-13 05:12:00,
2013-06-13 01:17:00,63.9,47.4,29.59,East,90,4.9,4.9,55,0.00,CLR,,0.00,WeatherDisplay:10.37,2013-06-13 05:17:00,
2013-06-13 01:22:00,63.9,47.4,29.59,ESE,112,0.3,4.9,55,0.00,CLR,,0.00,WeatherDisplay:10.37,2013-06-13 05:22:00,
2013-06-13 01:27:00,63.9,47.4,29.60,East,90,1.7,4.9,55,0.00,CLR,,0.00,WeatherDisplay:10.37,2013-06-13 05:27:00,
2013-06-13 01:32:00,63.9,47.4,29.60,ESE,112,0.7,4.9,55,0.00,CLR,,0.00,WeatherDisplay:10.37,2013-06-13 05:32:00,
2013-06-13 01:37:00,63.9,47.4,29.59,ESE,112,2.6,4.9,55,0.00,CLR,,0.00,WeatherDisplay:10.37,2013-06-13 05:37:00,
2013-06-13 01:42:00,63.9,47.4,29.59,ESE,112,0.3,4.9,55,0.00,CLR,,0.00,WeatherDisplay:10.37,2013-06-13 05:42:00,
2013-06-13 01:47:00,63.9,47.4,29.58,NE,45,4.0,4.9,55,0.00,CLR,,0.00,WeatherDisplay:10.37,2013-06-13 05:47:00,
2013-06-13 01:52:00,63.9,47.4,29.58,NE,45,2.8,4.9,55,0.00,CLR,,0.00,WeatherDisplay:10.37,2013-06-13 05:52:00,
2013-06-13 01:57:00,63.7,47.2,29.57,SSE,157,0.7,4.9,55,0.00,CLR,,0.00,WeatherDisplay:10.37,2013-06-13 05:57:00,
2013-06-13 02:02:00,63.7,47.2,29.56,SSE,157,0.7,4.9,55,0.00,CLR,,0.00,WeatherDisplay:10.37,2013-06-13 06:02:00,
2013-06-13 02:07:00,63.5,47.0,29.56,SSE,157,1.7,4.9,55,0.00,CLR,,0.00,WeatherDisplay:10.37,2013-06-13 06:07:00,
2013-06-13 02:12:00,63.3,46.9,29.56,NE,45,2.4,2.4,55,0.00,CLR,,0.00,WeatherDisplay:10.37,2013-06-13 06:12:00,
2013-06-13 02:17:00,63.1,46.7,29.55,NNE,22,3.1,3.5,55,0.00,CLR,,0.00,WeatherDisplay:10.37,2013-06-13 06:17:00,
2013-06-13 02:22:00,63.1,46.7,29.55,ENE,67,3.3,4.6,55,0.00,CLR,,0.00,WeatherDisplay:10.37,2013-06-13 06:22:00,
2013-06-13 02:27:00,63.1,46.7,29.55,NNE,22,5.5,5.8,55,0.00,CLR,,0.00,WeatherDisplay:10.37,2013-06-13 06:27:00,
2013-06-13 02:32:00,63.0,46.5,29.55,NNE,22,3.1,5.8,55,0.00,CLR,,0.00,WeatherDisplay:10.37,2013-06-13 06:32:00,
2013-06-13 02:37:00,63.0,46.5,29.55,North,0,3.1,5.8,55,0.00,CLR,,0.00,WeatherDisplay:10.37,2013-06-13 06:37:00,
2013-06-13 02:42:00,63.0,46.5,29.55,NNE,22,4.5,5.8,55,0.00,CLR,,0.00,WeatherDisplay:10.37,2013-06-13 06:42:00,
2013-06-13 02:47:00,63.0,46.5,29.55,NNE,22,4.5,5.8,55,0.00,CLR,,0.00,WeatherDisplay:10.37,2013-06-13 06:47:00,
2013-06-13 02:52:00,63.0,46.5,29.55,ENE,67,2.6,5.8,55,0.00,CLR,,0.00,WeatherDisplay:10.37,2013-06-13 06:52:00,
2013-06-13 02:57:00,63.0,46.5,29.54,ENE,67,2.6,6.9,55,0.00,CLR,,0.00,WeatherDisplay:10.37,2013-06-13 06:57:00,
2013-06-13 03:02:00,63.0,46.5,29.55,NE,45,4.5,6.9,55,0.00,CLR,,0.00,WeatherDisplay:10.37,2013-06-13 07:02:00,
2013-06-13 03:07:00,63.0,46.5,29.54,NE,45,1.7,6.9,55,0.00,CLR,,0.00,WeatherDisplay:10.37,2013-06-13 07:07:00,
2013-06-13 03:12:00,63.0,46.5,29.55,ENE,67,3.1,4.6,55,0.00,CLR,,0.00,WeatherDisplay:10.37,2013-06-13 07:12:00,
2013-06-13 03:17:00,63.0,46.5,29.55,NE,45,2.0,4.6,55,0.00,CLR,,0.00,WeatherDisplay:10.37,2013-06-13 07:17:00,
2013-06-13 03:22:00,63.0,46.5,29.55,SE,135,1.3,4.6,55,0.00,CLR,,0.00,WeatherDisplay:10.37,2013-06-13 07:22:00,
2013-06-13 03:27:00,63.0,46.5,29.55,NE,45,1.7,4.6,55,0.00,CLR,,0.00,WeatherDisplay:10.37,2013-06-13 07:27:00,
2013-06-13 03:32:00,63.0,46.5,29.56,NE,45,1.7,4.6,55,0.00,CLR,,0.00,WeatherDisplay:10.37,2013-06-13 07:32:00,
2013-06-13 03:37:00,63.0,46.5,29.56,North,0,1.7,4.6,55,0.00,CLR,,0.00,WeatherDisplay:10.37,2013-06-13 07:37:00,
2013-06-13 03:42:00,63.0,46.5,29.56,NNW,337,1.7,4.6,55,0.00,CLR,,0.00,WeatherDisplay:10.37,2013-06-13 07:42:00,
2013-06-13 03:47:00,62.8,46.4,29.56,NW,315,0.7,4.6,55,0.00,CLR,,0.00,WeatherDisplay:10.37,2013-06-13 07:47:00,
2013-06-13 03:52:00,62.8,46.4,29.57,NE,45,1.7,4.6,55,0.00,CLR,,0.00,WeatherDisplay:10.37,2013-06-13 07:52:00,
2013-06-13 03:57:00,62.8,46.4,29.57,SSW,202,2.4,4.6,55,0.00,CLR,,0.00,WeatherDisplay:10.37,2013-06-13 07:57:00,
2013-06-13 04:02:00,62.8,46.4,29.57,NNW,337,2.4,4.6,55,0.00,CLR,,0.00,WeatherDisplay:10.37,2013-06-13 08:02:00,
2013-06-13 04:07:00,62.8,46.4,29.57,NNW,337,3.1,4.6,55,0.00,CLR,,0.00,WeatherDisplay:10.37,2013-06-13 08:07:00,
2013-06-13 04:12:00,62.6,46.2,29.57,North,0,0.7,1.2,55,0.00,CLR,,0.00,WeatherDisplay:10.37,2013-06-13 08:12:00,
2013-06-13 04:17:00,62.6,46.2,29.57,NNW,337,2.6,2.6,55,0.00,CLR,,0.00,WeatherDisplay:10.37,2013-06-13 08:17:00,
2013-06-13 04:22:00,62.6,46.2,29.57,NNW,337,2.6,2.6,55,0.00,CLR,,0.00,WeatherDisplay:10.37,2013-06-13 08:22:00,
2013-06-13 04:27:00,62.6,46.2,29.57,NNW,337,2.6,2.6,55,0.00,CLR,,0.00,WeatherDisplay:10.37,2013-06-13 08:27:00,
2013-06-13 04:32:00,62.4,46.0,29.58,South,180,2.0,2.6,55,0.00,CLR,,0.00,WeatherDisplay:10.37,2013-06-13 08:32:00,
2013-06-13 04:37:00,62.4,46.0,29.58,NE,45,3.1,4.7,55,0.00,CLR,,0.00,WeatherDisplay:10.37,2013-06-13 08:37:00,
2013-06-13 04:42:00,62.4,46.0,29.58,NE,45,3.1,4.7,55,0.00,CLR,,0.00,WeatherDisplay:10.37,2013-06-13 08:42:00,
2013-06-13 04:47:00,62.2,45.9,29.59,NNE,22,0.7,4.7,55,0.00,CLR,,0.00,WeatherDisplay:10.37,2013-06-13 08:47:00,
2013-06-13 04:52:00,62.2,45.9,29.58,NNE,22,1.3,4.7,55,0.00,CLR,,0.00,WeatherDisplay:10.37,2013-06-13 08:52:00,
2013-06-13 04:57:00,62.2,45.9,29.57,NE,45,4.0,4.7,55,0.00,CLR,,0.00,WeatherDisplay:10.37,2013-06-13 08:57:00,
2013-06-13 05:02:00,62.1,45.7,29.52,ENE,67,2.0,4.7,55,0.00,CLR,,0.00,WeatherDisplay:10.37,2013-06-13 09:02:00,
2013-06-13 05:07:00,62.2,45.9,29.52,NE,45,1.0,4.7,55,0.00,CLR,,0.00,WeatherDisplay:10.37,2013-06-13 09:07:00,
2013-06-13 05:12:00,62.1,45.7,29.53,WNW,292,0.0,4.6,55,0.00,CLR,,0.00,WeatherDisplay:10.37,2013-06-13 09:12:00,
2013-06-13 05:17:00,62.1,45.7,29.53,WNW,292,0.0,1.2,55,0.00,CLR,,0.00,WeatherDisplay:10.37,2013-06-13 09:17:00,
2013-06-13 05:22:00,62.1,45.7,29.54,WNW,292,0.0,1.2,55,0.00,CLR,,0.00,WeatherDisplay:10.37,2013-06-13 09:22:00,
2013-06-13 05:27:00,61.7,45.4,29.54,WNW,292,0.0,1.2,55,0.00,CLR,,0.00,WeatherDisplay:10.37,2013-06-13 09:27:00,
2013-06-13 05:32:00,61.7,45.4,29.54,NNE,22,0.0,1.2,55,0.00,CLR,,0.00,WeatherDisplay:10.37,2013-06-13 09:32:00,
2013-06-13 05:37:00,61.7,45.4,29.54,North,0,0.3,1.2,55,0.00,CLR,,0.00,WeatherDisplay:10.37,2013-06-13 09:37:00,
2013-06-13 05:42:00,61.3,45.0,29.55,North,0,0.7,1.3,55,0.00,CLR,,0.00,WeatherDisplay:10.37,2013-06-13 09:42:00,
2013-06-13 05:47:00,61.3,45.0,29.55,ENE,67,1.7,1.7,55,0.00,CLR,,0.00,WeatherDisplay:10.37,2013-06-13 09:47:00,
2013-06-13 05:52:00,61.3,45.0,29.55,NNE,22,0.0,1.7,55,0.00,CLR,,0.00,WeatherDisplay:10.37,2013-06-13 09:52:00,
2013-06-13 05:57:00,61.2,44.9,29.55,East,90,0.0,1.7,55,0.00,CLR,,0.00,WeatherDisplay:10.37,2013-06-13 09:57:00,
2013-06-13 06:02:00,61.2,44.9,29.57,ENE,67,0.0,1.7,55,0.00,CLR,,0.00,WeatherDisplay:10.37,2013-06-13 10:02:00,
2013-06-13 06:07:00,61.2,44.9,29.56,ESE,112,0.0,1.7,55,0.00,CLR,,0.00,WeatherDisplay:10.37,2013-06-13 10:07:00,
2013-06-13 06:12:00,61.0,44.7,29.56,NE,45,0.0,1.7,55,0.00,CLR,,0.00,WeatherDisplay:10.37,2013-06-13 10:12:00,
2013-06-13 06:17:00,61.0,44.7,29.57,NE,45,0.0,1.7,55,0.00,CLR,,0.00,WeatherDisplay:10.37,2013-06-13 10:17:00,
2013-06-13 06:22:00,60.8,44.5,29.58,NE,45,0.0,1.7,55,0.00,CLR,,0.00,WeatherDisplay:10.37,2013-06-13 10:22:00,
2013-06-13 06:27:00,60.6,44.4,29.58,NNW,337,0.3,1.7,55,0.00,CLR,,0.00,WeatherDisplay:10.37,2013-06-13 10:27:00,
2013-06-13 06:32:00,60.6,44.4,29.58,NW,315,0.0,1.7,55,0.00,CLR,,0.00,WeatherDisplay:10.37,2013-06-13 10:32:00,
2013-06-13 06:37:00,60.6,44.4,29.59,ENE,67,0.0,1.7,55,0.00,CLR,,0.00,WeatherDisplay:10.37,2013-06-13 10:37:00,
2013-06-13 06:42:00,60.6,44.4,29.60,NE,45,1.0,1.7,55,0.00,CLR,,0.00,WeatherDisplay:10.37,2013-06-13 10:42:00,
2013-06-13 06:47:00,60.4,44.2,29.59,ENE,67,1.3,1.7,55,0.00,CLR,,0.00,WeatherDisplay:10.37,2013-06-13 10:47:00,
2013-06-13 06:52:00,60.6,44.4,29.60,WNW,292,0.0,1.7,55,0.00,CLR,,0.00,WeatherDisplay:10.37,2013-06-13 10:52:00,
2013-06-13 06:57:00,60.6,44.4,29.60,WSW,247,0.0,1.7,55,0.00,CLR,,0.00,WeatherDisplay:10.37,2013-06-13 10:57:00,
2013-06-13 07:02:00,60.6,44.4,29.61,NNW,337,0.0,1.7,55,0.00,CLR,,0.00,WeatherDisplay:10.37,2013-06-13 11:02:00,
2013-06-13 07:07:00,60.4,44.2,29.61,SW,225,0.0,1.7,55,0.00,CLR,,0.00,WeatherDisplay:10.37,2013-06-13 11:07:00,
2013-06-13 07:12:00,60.6,44.4,29.60,SW,225,0.0,0.0,55,0.00,CLR,,0.00,WeatherDisplay:10.37,2013-06-13 11:12:00,
2013-06-13 07:17:00,60.6,44.4,29.60,SW,225,0.0,0.0,55,0.00,CLR,,0.00,WeatherDisplay:10.37,2013-06-13 11:17:00,
2013-06-13 07:22:00,60.6,44.4,29.60,SW,225,0.0,0.0,55,0.00,CLR,,0.00,WeatherDisplay:10.37,2013-06-13 11:22:00,
2013-06-13 07:27:00,60.6,44.4,29.62,NE,45,0.0,0.0,55,0.00,CLR,,0.00,WeatherDisplay:10.37,2013-06-13 11:27:00,
2013-06-13 07:32:00,60.6,44.4,29.62,West,270,0.0,0.0,55,0.00,CLR,,0.00,WeatherDisplay:10.37,2013-06-13 11:32:00,
2013-06-13 07:37:00,60.6,44.4,29.62,NW,315,0.0,1.2,55,0.00,CLR,,0.00,WeatherDisplay:10.37,2013-06-13 11:37:00,
2013-06-13 07:42:00,60.6,44.4,29.62,SW,225,0.3,1.2,55,0.00,CLR,,0.00,WeatherDisplay:10.37,2013-06-13 11:42:00,
2013-06-13 07:47:00,60.8,44.5,29.62,South,180,0.3,1.2,55,0.00,CLR,,0.00,WeatherDisplay:10.37,2013-06-13 11:47:00,
2013-06-13 07:52:00,60.8,44.5,29.63,South,180,0.0,1.7,55,0.00,CLR,,0.00,WeatherDisplay:10.37,2013-06-13 11:52:00,
2013-06-13 07:57:00,60.8,44.5,29.62,South,180,0.0,1.7,55,0.00,CLR,,0.00,WeatherDisplay:10.37,2013-06-13 11:57:00,
2013-06-13 08:02:00,61.0,44.7,29.63,NE,45,0.0,1.7,55,0.00,CLR,,0.00,WeatherDisplay:10.37,2013-06-13 12:02:00,
2013-06-13 08:07:00,61.3,45.0,29.64,NNW,337,0.7,1.7,55,0.00,CLR,,0.00,WeatherDisplay:10.37,2013-06-13 12:07:00,
2013-06-13 08:12:00,61.3,45.0,29.63,NE,45,0.7,1.2,55,0.00,CLR,,0.00,WeatherDisplay:10.37,2013-06-13 12:12:00,
2013-06-13 08:17:00,61.9,45.5,29.64,NE,45,0.0,1.2,55,0.00,CLR,,0.00,WeatherDisplay:10.37,2013-06-13 12:17:00,
2013-06-13 08:22:00,62.2,45.9,29.64,NNW,337,0.0,1.2,55,0.00,CLR,,0.00,WeatherDisplay:10.37,2013-06-13 12:22:00,
2013-06-13 08:27:00,62.8,46.4,29.64,NNW,337,0.3,1.2,55,0.00,CLR,,0.00,WeatherDisplay:10.37,2013-06-13 12:27:00,
2013-06-13 08:32:00,63.1,46.7,29.65,NNE,22,0.0,1.2,55,0.00,CLR,,0.00,WeatherDisplay:10.37,2013-06-13 12:32:00,
2013-06-13 08:37:00,63.9,47.4,29.65,NE,45,0.0,1.2,55,0.00,CLR,,0.00,WeatherDisplay:10.37,2013-06-13 12:37:00,
2013-06-13 08:42:00,64.2,47.7,29.65,North,0,2.4,2.4,55,0.00,CLR,,0.00,WeatherDisplay:10.37,2013-06-13 12:42:00,
2013-06-13 08:47:00,64.8,48.2,29.65,NW,315,2.4,2.4,55,0.00,CLR,,0.00,WeatherDisplay:10.37,2013-06-13 12:47:00,
2013-06-13 08:52:00,65.1,48.5,29.65,NNW,337,0.0,2.4,55,0.00,CLR,,0.00,WeatherDisplay:10.37,2013-06-13 12:52:00,
2013-06-13 08:57:00,66.4,49.7,29.66,NE,45,1.3,2.4,55,0.00,CLR,,0.00,WeatherDisplay:10.37,2013-06-13 12:57:00,
2013-06-13 09:02:00,66.9,50.2,29.65,North,0,1.0,2.4,55,0.00,CLR,,0.00,WeatherDisplay:10.37,2013-06-13 13:02:00,
2013-06-13 09:07:00,66.9,50.2,29.66,North,0,1.0,2.4,55,0.00,CLR,,0.00,WeatherDisplay:10.37,2013-06-13 13:07:00,
2013-06-13 09:12:00,68.4,51.6,29.66,South,180,2.6,2.6,55,0.00,CLR,,0.00,WeatherDisplay:10.37,2013-06-13 13:12:00,
2013-06-13 09:17:00,68.9,52.1,29.66,WSW,247,1.0,2.6,55,0.00,CLR,,0.00,WeatherDisplay:10.37,2013-06-13 13:17:00,
2013-06-13 09:22:00,68.9,52.1,29.66,SE,135,1.0,2.6,55,0.00,CLR,,0.00,WeatherDisplay:10.37,2013-06-13 13:22:00,
2013-06-13 09:27:00,68.5,51.7,29.66,NNW,337,2.8,2.8,55,0.00,CLR,,0.00,WeatherDisplay:10.37,2013-06-13 13:27:00,
2013-06-13 09:32:00,68.4,51.6,29.66,East,90,0.0,2.8,55,0.00,CLR,,0.00,WeatherDisplay:10.37,2013-06-13 13:32:00,
2013-06-13 09:37:00,68.5,51.7,29.66,North,0,0.7,2.8,55,0.00,CLR,,0.00,WeatherDisplay:10.37,2013-06-13 13:37:00,
2013-06-13 09:42:00,68.4,51.6,29.66,NNW,337,0.3,2.8,55,0.00,CLR,,0.00,WeatherDisplay:10.37,2013-06-13 13:42:00,
2013-06-13 09:47:00,68.0,51.2,29.66,NNW,337,0.7,2.8,55,0.00,CLR,,0.00,WeatherDisplay:10.37,2013-06-13 13:47:00,
2013-06-13 09:52:00,68.0,51.2,29.66,West,270,0.7,2.8,55,0.00,CLR,,0.00,WeatherDisplay:10.37,2013-06-13 13:52:00,
2013-06-13 09:57:00,68.0,51.2,29.66,West,270,0.7,2.8,55,0.00,CLR,,0.00,WeatherDisplay:10.37,2013-06-13 13:57:00,
2013-06-13 10:02:00,68.0,51.2,29.66,SW,225,0.0,2.8,55,0.00,CLR,,0.00,WeatherDisplay:10.37,2013-06-13 14:02:00,
2013-06-13 10:07:00,68.4,51.6,29.66,NNW,337,1.3,2.8,55,0.00,CLR,,0.00,WeatherDisplay:10.37,2013-06-13 14:07:00,
2013-06-13 10:12:00,68.4,51.6,29.66,NNW,337,1.3,2.3,55,0.00,CLR,,0.00,WeatherDisplay:10.37,2013-06-13 14:12:00,
2013-06-13 10:17:00,68.7,51.9,29.66,NNE,22,0.3,1.7,55,0.00,CLR,,0.00,WeatherDisplay:10.37,2013-06-13 14:17:00,
2013-06-13 10:22:00,69.3,52.4,29.66,SW,225,1.3,1.7,55,0.00,CLR,,0.00,WeatherDisplay:10.37,2013-06-13 14:22:00,
2013-06-13 10:27:00,69.4,52.6,29.66,NNW,337,1.3,2.6,55,0.00,CLR,,0.00,WeatherDisplay:10.37,2013-06-13 14:27:00,
2013-06-13 10:32:00,69.4,52.6,29.67,NNE,22,0.0,2.6,55,0.00,CLR,,0.00,WeatherDisplay:10.37,2013-06-13 14:32:00,
2013-06-13 10:37:00,70.9,53.9,29.66,NNE,22,1.3,2.6,55,0.00,CLR,,0.00,WeatherDisplay:10.37,2013-06-13 14:37:00,
2013-06-13 10:42:00,70.9,53.9,29.66,WNW,292,2.4,2.6,55,0.00,CLR,,0.00,WeatherDisplay:10.37,2013-06-13 14:42:00,
2013-06-13 10:48:00,71.6,54.6,29.66,North,0,1.3,2.6,55,0.00,CLR,,0.00,WeatherDisplay:10.37,2013-06-13 14:48:00,
2013-06-13 10:53:00,71.2,54.2,29.66,WNW,292,2.0,2.6,55,0.00,CLR,,0.00,WeatherDisplay:10.37,2013-06-13 14:53:00,
2013-06-13 10:58:00,71.2,54.2,29.66,WNW,292,1.3,3.6,55,0.00,CLR,,0.00,WeatherDisplay:10.37,2013-06-13 14:58:00,
2013-06-13 11:03:00,70.7,53.7,29.66,North,0,1.7,3.6,55,0.00,CLR,,0.00,WeatherDisplay:10.37,2013-06-13 15:03:00,
2013-06-13 11:08:00,70.5,53.6,29.67,WNW,292,2.4,3.6,55,0.00,CLR,,0.00,WeatherDisplay:10.37,2013-06-13 15:08:00,
2013-06-13 11:13:00,70.3,53.4,29.67,ENE,67,3.1,3.5,55,0.00,CLR,,0.00,WeatherDisplay:10.37,2013-06-13 15:13:00,
2013-06-13 11:18:00,70.5,53.6,29.68,WNW,292,0.3,3.5,55,0.00,CLR,,0.00,WeatherDisplay:10.37,2013-06-13 15:18:00,
2013-06-13 11:23:00,70.9,53.9,29.67,WNW,292,1.7,3.5,55,0.00,CLR,,0.00,WeatherDisplay:10.37,2013-06-13 15:23:00,
2013-06-13 11:28:00,71.4,54.4,29.68,NNW,337,1.3,3.5,55,0.00,CLR,,0.00,WeatherDisplay:10.37,2013-06-13 15:28:00,
2013-06-13 11:33:00,71.6,54.6,29.68,NW,315,2.6,3.5,55,0.00,CLR,,0.00,WeatherDisplay:10.37,2013-06-13 15:33:00,
2013-06-13 11:38:00,71.8,54.7,29.68,West,270,3.6,3.6,55,0.00,CLR,,0.00,WeatherDisplay:10.37,2013-06-13 15:38:00,
2013-06-13 11:43:00,72.9,55.7,29.67,NW,315,1.3,3.6,55,0.00,CLR,,0.00,WeatherDisplay:10.37,2013-06-13 15:43:00,
2013-06-13 11:48:00,72.9,55.7,29.68,SE,135,3.1,3.6,55,0.00,CLR,,0.00,WeatherDisplay:10.37,2013-06-13 15:48:00,
2013-06-13 11:53:00,73.4,56.2,29.68,NNW,337,2.0,3.6,55,0.00,CLR,,0.00,WeatherDisplay:10.37,2013-06-13 15:53:00,
2013-06-13 11:58:00,73.6,56.4,29.68,NNW,337,2.0,3.6,55,0.00,CLR,,0.00,WeatherDisplay:10.37,2013-06-13 15:58:00,
2013-06-13 12:03:00,75.4,58.1,29.68,NE,45,2.4,3.6,55,0.00,CLR,,0.00,WeatherDisplay:10.37,2013-06-13 16:03:00,
2013-06-13 12:08:00,75.4,58.1,29.69,North,0,1.7,3.6,55,0.00,CLR,,0.00,WeatherDisplay:10.37,2013-06-13 16:08:00,
2013-06-13 12:13:00,75.4,58.1,29.68,NNE,22,3.3,3.5,55,0.00,CLR,,0.00,WeatherDisplay:10.37,2013-06-13 16:13:00,
2013-06-13 12:18:00,75.7,58.4,29.68,North,0,2.4,3.5,55,0.00,CLR,,0.00,WeatherDisplay:10.37,2013-06-13 16:18:00,
2013-06-13 12:23:00,76.1,58.8,29.68,NW,315,2.0,3.5,55,0.00,CLR,,0.00,WeatherDisplay:10.37,2013-06-13 16:23:00,
2013-06-13 12:28:00,76.5,59.1,29.69,West,270,3.1,3.5,55,0.00,CLR,,0.00,WeatherDisplay:10.37,2013-06-13 16:28:00,
2013-06-13 12:33:00,76.3,58.9,29.69,WNW,292,4.0,4.0,55,0.00,CLR,,0.00,WeatherDisplay:10.37,2013-06-13 16:33:00,
2013-06-13 12:38:00,76.1,58.8,29.68,NNW,337,2.4,4.0,55,0.00,CLR,,0.00,WeatherDisplay:10.37,2013-06-13 16:38:00,
2013-06-13 12:43:00,76.1,58.8,29.69,North,0,2.6,4.0,55,0.00,CLR,,0.00,WeatherDisplay:10.37,2013-06-13 16:43:00,
2013-06-13 12:48:00,76.8,59.4,29.69,WSW,247,1.7,4.0,55,0.00,CLR,,0.00,WeatherDisplay:10.37,2013-06-13 16:48:00,
2013-06-13 12:53:00,77.0,59.6,29.69,North,0,1.7,4.0,55,0.00,CLR,,0.00,WeatherDisplay:10.37,2013-06-13 16:53:00,
2013-06-13 12:58:00,76.8,59.4,29.69,NE,45,1.7,4.7,55,0.00,CLR,,0.00,WeatherDisplay:10.37,2013-06-13 16:58:00,
2013-06-13 13:03:00,77.5,60.1,29.70,SW,225,2.6,4.7,55,0.00,CLR,,0.00,WeatherDisplay:10.37,2013-06-13 17:03:00,
2013-06-13 13:08:00,77.9,60.4,29.69,East,90,3.6,4.7,55,0.00,CLR,,0.00,WeatherDisplay:10.37,2013-06-13 17:08:00,
2013-06-13 13:13:00,77.4,59.9,29.70,East,90,2.8,2.8,55,0.00,CLR,,0.00,WeatherDisplay:10.37,2013-06-13 17:13:00,
2013-06-13 13:18:00,77.5,60.1,29.70,East,90,0.7,5.9,55,0.00,CLR,,0.00,WeatherDisplay:10.37,2013-06-13 17:18:00,
2013-06-13 13:23:00,77.5,60.1,29.70,NNE,22,0.7,5.9,55,0.00,CLR,,0.00,WeatherDisplay:10.37,2013-06-13 17:23:00,
2013-06-13 13:28:00,77.7,60.3,29.69,NNE,22,2.0,5.9,55,0.00,CLR,,0.00,WeatherDisplay:10.37,2013-06-13 17:28:00,
2013-06-13 13:33:00,77.7,60.3,29.70,NW,315,2.6,5.9,55,0.00,CLR,,0.00,WeatherDisplay:10.37,2013-06-13 17:33:00,
2013-06-13 13:38:00,77.7,60.3,29.70,NW,315,3.1,5.9,55,0.00,CLR,,0.00,WeatherDisplay:10.37,2013-06-13 17:38:00,
2013-06-13 13:43:00,77.5,60.1,29.70,NNW,337,2.0,5.9,55,0.00,CLR,,0.00,WeatherDisplay:10.37,2013-06-13 17:43:00,
2013-06-13 13:48:00,78.1,60.6,29.70,NNW,337,2.0,5.9,55,0.00,CLR,,0.00,WeatherDisplay:10.37,2013-06-13 17:48:00,
2013-06-13 13:53:00,78.4,60.9,29.71,NE,45,1.3,5.9,55,0.00,CLR,,0.00,WeatherDisplay:10.37,2013-06-13 17:53:00,
2013-06-13 13:58:00,78.8,61.3,29.69,SSE,157,2.8,9.7,55,0.00,CLR,,0.00,WeatherDisplay:10.37,2013-06-13 17:58:00,
2013-06-13 14:03:00,78.6,61.1,29.70,SSE,157,3.6,9.7,55,0.00,CLR,,0.00,WeatherDisplay:10.37,2013-06-13 18:03:00,
2013-06-13 14:08:00,78.3,60.8,29.70,North,0,3.6,9.7,55,0.00,CLR,,0.00,WeatherDisplay:10.37,2013-06-13 18:08:00,
2013-06-13 14:13:00,78.6,61.1,29.76,NNW,337,2.0,3.6,55,0.00,CLR,,0.00,WeatherDisplay:10.37,2013-06-13 18:13:00,
2013-06-13 14:18:00,78.1,60.6,29.76,NE,45,4.0,4.0,55,0.00,CLR,,0.00,WeatherDisplay:10.37,2013-06-13 18:18:00,
2013-06-13 14:23:00,77.7,60.3,29.71,WNW,292,2.8,4.0,55,0.00,CLR,,0.00,WeatherDisplay:10.37,2013-06-13 18:23:00,
2013-06-13 14:28:00,77.7,60.3,29.71,WNW,292,2.8,4.0,55,0.00,CLR,,0.00,WeatherDisplay:10.37,2013-06-13 18:28:00,
2013-06-13 14:33:00,78.4,60.9,29.77,ENE,67,4.5,4.5,55,0.00,CLR,,0.00,WeatherDisplay:10.37,2013-06-13 18:33:00,
2013-06-13 14:38:00,78.6,61.1,29.77,WSW,247,4.3,4.6,55,0.00,CLR,,0.00,WeatherDisplay:10.37,2013-06-13 18:38:00,
2013-06-13 14:43:00,78.4,60.9,29.76,SSW,202,3.1,4.6,55,0.00,CLR,,0.00,WeatherDisplay:10.37,2013-06-13 18:43:00,
2013-06-13 14:48:00,78.3,60.8,29.76,NW,315,4.3,4.6,55,0.00,CLR,,0.00,WeatherDisplay:10.37,2013-06-13 18:48:00,
2013-06-13 14:53:00,78.3,60.8,29.78,NW,315,2.6,4.6,55,0.00,CLR,,0.00,WeatherDisplay:10.37,2013-06-13 18:53:00,
2013-06-13 14:58:00,78.8,61.3,29.78,SSW,202,2.6,4.6,55,0.00,CLR,,0.00,WeatherDisplay:10.37,2013-06-13 18:58:00,
2013-06-13 15:03:00,79.2,61.6,29.73,SW,225,2.6,4.6,55,0.00,CLR,,0.00,WeatherDisplay:10.37,2013-06-13 19:03:00,
2013-06-13 15:08:00,78.8,60.7,29.73,SW,225,3.6,4.6,54,0.00,CLR,,0.00,WeatherDisplay:10.37,2013-06-13 19:08:00,
2013-06-13 15:13:00,80.1,61.9,29.74,NNE,22,3.3,5.5,54,0.00,CLR,,0.00,WeatherDisplay:10.37,2013-06-13 19:13:00,
2013-06-13 15:18:00,79.5,60.9,29.75,NNW,337,2.6,5.8,53,0.00,CLR,,0.00,WeatherDisplay:10.37,2013-06-13 19:18:00,
2013-06-13 15:23:00,79.3,60.2,29.76,NNW,337,10.4,10.4,52,0.00,CLR,,0.00,WeatherDisplay:10.37,2013-06-13 19:23:00,
2013-06-13 15:28:00,79.3,60.2,29.75,North,0,4.7,10.4,52,0.00,CLR,,0.00,WeatherDisplay:10.37,2013-06-13 19:28:00,
2013-06-13 15:33:00,79.3,59.6,29.76,NNE,22,4.7,10.4,51,0.00,CLR,,0.00,WeatherDisplay:10.37,2013-06-13 19:33:00,
2013-06-13 15:38:00,78.8,59.1,29.76,West,270,2.0,10.4,51,0.00,CLR,,0.00,WeatherDisplay:10.37,2013-06-13 19:38:00,
2013-06-13 15:43:00,78.8,59.1,29.76,NNE,22,1.0,10.4,51,0.00,CLR,,0.00,WeatherDisplay:10.37,2013-06-13 19:43:00,
2013-06-13 15:48:00,78.6,59.0,29.76,North,0,2.4,10.4,51,0.00,CLR,,0.00,WeatherDisplay:10.37,2013-06-13 19:48:00,
2013-06-13 15:53:00,78.8,59.1,29.75,WSW,247,2.4,10.4,51,0.00,CLR,,0.00,WeatherDisplay:10.37,2013-06-13 19:53:00,
2013-06-13 15:58:00,79.0,59.3,29.75,NNE,22,4.3,10.4,51,0.00,CLR,,0.00,WeatherDisplay:10.37,2013-06-13 19:58:00,
2013-06-13 16:03:00,79.0,59.3,29.75,NNE,22,4.3,10.4,51,0.00,CLR,,0.00,WeatherDisplay:10.37,2013-06-13 20:03:00,
2013-06-13 16:08:00,79.3,59.6,29.75,ENE,67,5.7,10.4,51,0.00,CLR,,0.00,WeatherDisplay:10.37,2013-06-13 20:08:00,
2013-06-13 16:13:00,78.4,58.8,29.75,NNW,337,3.3,5.8,51,0.00,CLR,,0.00,WeatherDisplay:10.37,2013-06-13 20:13:00,
2013-06-13 16:18:00,78.1,58.5,29.75,SSW,202,3.3,5.8,51,0.00,CLR,,0.00,WeatherDisplay:10.37,2013-06-13 20:18:00,
2013-06-13 16:23:00,77.9,58.3,29.74,NE,45,2.4,5.8,51,0.00,CLR,,0.00,WeatherDisplay:10.37,2013-06-13 20:23:00,
2013-06-13 16:28:00,77.9,58.3,29.74,NNW,337,2.4,5.8,51,0.00,CLR,,0.00,WeatherDisplay:10.37,2013-06-13 20:28:00,
2013-06-13 16:33:00,77.7,58.1,29.74,NNW,337,4.7,5.8,51,0.00,CLR,,0.00,WeatherDisplay:10.37,2013-06-13 20:33:00,
2013-06-13 16:38:00,77.4,58.4,29.74,NNE,22,1.0,5.8,52,0.00,CLR,,0.00,WeatherDisplay:10.37,2013-06-13 20:38:00,
2013-06-13 16:43:00,77.2,58.2,29.74,SSW,202,2.4,5.8,52,0.00,CLR,,0.00,WeatherDisplay:10.37,2013-06-13 20:43:00,
2013-06-13 16:48:00,77.2,58.2,29.74,NNE,22,5.1,5.8,52,0.00,CLR,,0.00,WeatherDisplay:10.37,2013-06-13 20:48:00,
2013-06-13 16:53:00,77.0,58.0,29.74,NNE,22,5.1,5.8,52,0.00,CLR,,0.00,WeatherDisplay:10.37,2013-06-13 20:53:00,
2013-06-13 16:58:00,76.3,57.4,29.74,WNW,292,0.7,5.8,52,0.00,CLR,,0.00,WeatherDisplay:10.37,2013-06-13 20:58:00,
2013-06-13 17:03:00,75.6,57.2,29.74,NNE,22,0.3,5.8,53,0.00,CLR,,0.00,WeatherDisplay:10.37,2013-06-13 21:03:00,
2013-06-13 17:08:00,75.4,57.1,29.74,NE,45,2.6,5.8,53,0.00,CLR,,0.00,WeatherDisplay:10.37,2013-06-13 21:08:00,
2013-06-13 17:13:00,75.4,57.1,29.73,NNW,337,1.3,3.6,53,0.00,CLR,,0.00,WeatherDisplay:10.37,2013-06-13 21:13:00,
2013-06-13 17:18:00,75.4,57.1,29.73,NE,45,2.0,3.6,53,0.00,CLR,,0.00,WeatherDisplay:10.37,2013-06-13 21:18:00,
2013-06-13 17:23:00,75.2,56.9,29.74,North,0,2.0,3.6,53,0.00,CLR,,0.00,WeatherDisplay:10.37,2013-06-13 21:23:00,
2013-06-13 17:28:00,75.2,56.9,29.74,NE,45,3.3,3.6,53,0.00,CLR,,0.00,WeatherDisplay:10.37,2013-06-13 21:28:00,
2013-06-13 17:33:00,75.2,56.9,29.74,NNW,337,3.3,3.6,53,0.00,CLR,,0.00,WeatherDisplay:10.37,2013-06-13 21:33:00,
2013-06-13 17:38:00,75.2,56.9,29.80,NNW,337,3.1,3.6,53,0.00,CLR,,0.00,WeatherDisplay:10.37,2013-06-13 21:38:00,
2013-06-13 17:43:00,74.5,56.2,29.80,NE,45,3.1,3.6,53,0.00,CLR,,0.00,WeatherDisplay:10.37,2013-06-13 21:43:00,
2013-06-13 17:48:00,74.1,55.9,29.80,NE,45,2.4,3.6,53,0.00,CLR,,0.00,WeatherDisplay:10.37,2013-06-13 21:48:00,
2013-06-13 17:53:00,74.1,55.9,29.80,NW,315,1.3,3.6,53,0.00,CLR,,0.00,WeatherDisplay:10.37,2013-06-13 21:53:00,
2013-06-13 17:58:00,74.1,55.9,29.80,NNW,337,1.7,3.6,53,0.00,CLR,,0.00,WeatherDisplay:10.37,2013-06-13 21:58:00,
2013-06-13 18:03:00,74.1,55.9,29.80,NNW,337,0.0,3.6,53,0.00,CLR,,0.00,WeatherDisplay:10.37,2013-06-13 22:03:00,
2013-06-13 18:08:00,74.1,56.4,29.80,NNW,337,2.6,3.6,54,0.00,CLR,,0.00,WeatherDisplay:10.37,2013-06-13 22:08:00,
2013-06-13 18:13:00,74.1,56.4,29.80,NNE,22,1.3,3.5,54,0.00,CLR,,0.00,WeatherDisplay:10.37,2013-06-13 22:13:00,
2013-06-13 18:18:00,73.8,56.1,29.80,NNE,22,3.8,3.8,54,0.00,CLR,,0.00,WeatherDisplay:10.37,2013-06-13 22:18:00,
2013-06-13 18:23:00,73.6,55.9,29.79,South,180,0.0,4.6,54,0.00,CLR,,0.00,WeatherDisplay:10.37,2013-06-13 22:23:00,
2013-06-13 18:28:00,73.6,55.9,29.79,North,0,1.7,4.6,54,0.00,CLR,,0.00,WeatherDisplay:10.37,2013-06-13 22:28:00,
2013-06-13 18:33:00,73.2,55.6,29.79,North,0,2.0,4.6,54,0.00,CLR,,0.00,WeatherDisplay:10.37,2013-06-13 22:33:00,
2013-06-13 18:38:00,73.2,55.6,29.79,NNE,22,2.0,4.6,54,0.00,CLR,,0.00,WeatherDisplay:10.37,2013-06-13 22:38:00,
2013-06-13 18:43:00,72.5,54.9,29.79,North,0,1.7,4.6,54,0.00,CLR,,0.00,WeatherDisplay:10.37,2013-06-13 22:43:00,
2013-06-13 18:48:00,72.1,54.6,29.79,NNW,337,0.0,4.6,54,0.00,CLR,,0.00,WeatherDisplay:10.37,2013-06-13 22:48:00,
2013-06-13 18:53:00,72.0,54.4,29.79,NNW,337,1.0,4.6,54,0.00,CLR,,0.00,WeatherDisplay:10.37,2013-06-13 22:53:00,
2013-06-13 18:58:00,71.6,54.1,29.79,SSW,202,1.0,4.6,54,0.00,CLR,,0.00,WeatherDisplay:10.37,2013-06-13 22:58:00,
2013-06-13 19:03:00,71.4,53.9,29.80,NE,45,0.0,4.6,54,0.00,CLR,,0.00,WeatherDisplay:10.37,2013-06-13 23:03:00,
2013-06-13 19:08:00,71.4,54.4,29.79,NE,45,0.0,4.6,55,0.00,CLR,,0.00,WeatherDisplay:10.37,2013-06-13 23:08:00,
2013-06-13 19:13:00,71.4,54.4,29.79,NE,45,0.0,0.0,55,0.00,CLR,,0.00,WeatherDisplay:10.37,2013-06-13 23:13:00,
2013-06-13 19:18:00,71.2,54.2,29.80,SW,225,0.0,0.0,55,0.00,CLR,,0.00,WeatherDisplay:10.37,2013-06-13 23:18:00,
2013-06-13 19:23:00,71.1,54.1,29.79,SW,225,0.0,1.2,55,0.00,CLR,,0.00,WeatherDisplay:10.37,2013-06-13 23:23:00,
2013-06-13 19:28:00,71.1,54.1,29.79,NW,315,1.3,1.3,55,0.00,CLR,,0.00,WeatherDisplay:10.37,2013-06-13 23:28:00,
2013-06-13 19:33:00,70.7,53.7,29.79,NW,315,0.0,1.3,55,0.00,CLR,,0.00,WeatherDisplay:10.37,2013-06-13 23:33:00,
2013-06-13 19:38:00,70.5,53.6,29.79,NW,315,1.7,1.7,55,0.00,CLR,,0.00,WeatherDisplay:10.37,2013-06-13 23:38:00,
2013-06-13 19:43:00,70.5,53.6,29.78,NE,45,0.3,1.7,55,0.00,CLR,,0.00,WeatherDisplay:10.37,2013-06-13 23:43:00,
2013-06-13 19:48:00,70.3,53.4,29.77,NNW,337,0.7,1.7,55,0.00,CLR,,0.00,WeatherDisplay:10.37,2013-06-13 23:48:00,
2013-06-13 19:53:00,70.3,53.4,29.77,SW,225,0.7,1.7,55,0.00,CLR,,0.00,WeatherDisplay:10.37,2013-06-13 23:53:00,
2013-06-13 19:58:00,70.0,53.1,29.77,ENE,67,1.7,1.7,55,0.00,CLR,,0.00,WeatherDisplay:10.37,2013-06-13 23:58:00,
2013-06-13 20:03:00,69.8,52.9,29.77,North,0,1.7,1.7,55,0.00,CLR,,0.00,WeatherDisplay:10.37,2013-06-14 00:03:00,
2013-06-13 20:08:00,69.6,52.7,29.77,South,180,0.0,1.7,55,0.00,CLR,,0.00,WeatherDisplay:10.37,2013-06-14 00:08:00,
2013-06-13 20:13:00,69.4,52.6,29.77,NNW,337,1.0,1.2,55,0.00,CLR,,0.00,WeatherDisplay:10.37,2013-06-14 00:13:00,
2013-06-13 20:18:00,69.3,52.4,29.83,North,0,1.0,1.3,55,0.00,CLR,,0.00,WeatherDisplay:10.37,2013-06-14 00:18:00,
2013-06-13 20:23:00,69.3,52.4,29.77,NNE,22,1.0,1.3,55,0.00,CLR,,0.00,WeatherDisplay:10.37,2013-06-14 00:23:00,
2013-06-13 20:28:00,69.1,52.2,29.83,NNE,22,0.0,1.3,55,0.00,CLR,,0.00,WeatherDisplay:10.37,2013-06-14 00:28:00,
2013-06-13 20:33:00,69.1,52.2,29.78,NNE,22,0.3,1.3,55,0.00,CLR,,0.00,WeatherDisplay:10.37,2013-06-14 00:33:00,
2013-06-13 20:38:00,69.1,52.2,29.83,SSE,157,0.3,1.3,55,0.00,CLR,,0.00,WeatherDisplay:10.37,2013-06-14 00:38:00,
2013-06-13 20:43:00,68.7,51.9,29.84,SSE,157,0.3,1.3,55,0.00,CLR,,0.00,WeatherDisplay:10.37,2013-06-14 00:43:00,
2013-06-13 20:48:00,68.5,51.7,29.83,North,0,0.0,1.3,55,0.00,CLR,,0.00,WeatherDisplay:10.37,2013-06-14 00:48:00,
2013-06-13 20:53:00,68.5,51.7,29.83,NNE,22,2.0,2.3,55,0.00,CLR,,0.00,WeatherDisplay:10.37,2013-06-14 00:53:00,
2013-06-13 20:58:00,68.2,51.4,29.83,NNE,22,0.0,2.3,55,0.00,CLR,,0.00,WeatherDisplay:10.37,2013-06-14 00:58:00,
2013-06-13 21:03:00,68.2,51.4,29.83,NE,45,0.0,2.3,55,0.00,CLR,,0.00,WeatherDisplay:10.37,2013-06-14 01:03:00,
2013-06-13 21:08:00,67.8,51.1,29.84,North,0,0.0,2.3,55,0.00,CLR,,0.00,WeatherDisplay:10.37,2013-06-14 01:08:00,
2013-06-13 21:13:00,67.8,51.1,29.84,North,0,0.0,2.3,55,0.00,CLR,,0.00,WeatherDisplay:10.37,2013-06-14 01:13:00,
2013-06-13 21:18:00,67.8,51.1,29.84,North,0,0.0,0.0,55,0.00,CLR,,0.00,WeatherDisplay:10.37,2013-06-14 01:18:00,
2013-06-13 21:23:00,67.8,51.1,29.79,North,0,0.0,0.0,55,0.00,CLR,,0.00,WeatherDisplay:10.37,2013-06-14 01:23:00,
2013-06-13 21:28:00,67.3,50.6,29.81,NE,45,0.0,0.0,55,0.00,CLR,,0.00,WeatherDisplay:10.37,2013-06-14 01:28:00,
2013-06-13 21:33:00,67.1,50.4,29.82,NE,45,0.0,0.0,55,0.00,CLR,,0.00,WeatherDisplay:10.37,2013-06-14 01:33:00,
2013-06-13 21:38:00,66.9,50.2,29.83,NE,45,0.0,0.0,55,0.00,CLR,,0.00,WeatherDisplay:10.37,2013-06-14 01:38:00,
2013-06-13 21:43:00,66.9,49.7,29.84,ENE,67,0.0,0.0,54,0.00,CLR,,0.00,WeatherDisplay:10.37,2013-06-14 01:43:00,
2013-06-13 21:48:00,66.6,48.9,29.84,ENE,67,0.0,0.0,53,0.00,CLR,,0.00,WeatherDisplay:10.37,2013-06-14 01:48:00,
2013-06-13 21:53:00,66.4,48.7,29.85,ENE,67,0.0,0.0,53,0.00,CLR,,0.00,WeatherDisplay:10.37,2013-06-14 01:53:00,
2013-06-13 21:58:00,66.6,48.4,29.87,ENE,67,0.0,0.0,52,0.00,CLR,,0.00,WeatherDisplay:10.37,2013-06-14 01:58:00,
2013-06-13 22:03:00,66.6,47.9,29.87,SE,135,0.0,0.0,51,0.00,CLR,,0.00,WeatherDisplay:10.37,2013-06-14 02:03:00,
2013-06-13 22:08:00,66.4,47.7,29.82,SE,135,0.0,0.0,51,0.00,CLR,,0.00,WeatherDisplay:10.37,2013-06-14 02:08:00,
2013-06-13 22:13:00,66.4,47.2,29.83,ESE,112,0.0,0.0,50,0.00,CLR,,0.00,WeatherDisplay:10.37,2013-06-14 02:13:00,
2013-06-13 22:18:00,66.6,47.9,29.83,NW,315,0.0,0.0,51,0.00,CLR,,0.00,WeatherDisplay:10.37,2013-06-14 02:18:00,
2013-06-13 22:23:00,66.6,47.9,29.83,NNE,22,0.0,0.0,51,0.00,CLR,,0.00,WeatherDisplay:10.37,2013-06-14 02:23:00,
2013-06-13 22:28:00,66.4,47.7,29.83,ENE,67,0.0,0.3,51,0.00,CLR,,0.00,WeatherDisplay:10.37,2013-06-14 02:28:00,
2013-06-13 22:33:00,65.8,47.2,29.83,North,0,0.0,0.3,51,0.00,CLR,,0.00,WeatherDisplay:10.37,2013-06-14 02:33:00,
2013-06-13 22:38:00,65.7,47.5,29.89,NNE,22,0.0,0.3,52,0.00,CLR,,0.00,WeatherDisplay:10.37,2013-06-14 02:38:00,
2013-06-13 22:43:00,65.7,48.1,29.83,NNE,22,0.0,0.3,53,0.00,CLR,,0.00,WeatherDisplay:10.37,2013-06-14 02:43:00,
2013-06-13 22:48:00,65.7,48.6,29.89,NNE,22,0.0,0.3,54,0.00,CLR,,0.00,WeatherDisplay:10.37,2013-06-14 02:48:00,
2013-06-13 22:53:00,65.7,48.6,29.89,NNE,22,0.0,0.3,54,0.00,CLR,,0.00,WeatherDisplay:10.37,2013-06-14 02:53:00,
2013-06-13 22:58:00,65.7,48.6,29.89,NNE,22,0.0,0.3,54,0.00,CLR,,0.00,WeatherDisplay:10.37,2013-06-14 02:58:00,
2013-06-13 23:03:00,65.3,48.2,29.89,ENE,67,2.0,3.8,54,0.00,CLR,,0.00,WeatherDisplay:10.37,2013-06-14 03:03:00,
2013-06-13 23:08:00,65.1,48.1,29.89,ENE,67,1.7,5.1,54,0.00,CLR,,0.00,WeatherDisplay:10.37,2013-06-14 03:08:00,
2013-06-13 23:13:00,65.1,48.5,29.89,ENE,67,0.0,0.0,55,0.00,CLR,,0.00,WeatherDisplay:10.37,2013-06-14 03:13:00,
2013-06-13 23:18:00,65.1,48.5,29.89,ESE,112,2.4,2.4,55,0.00,CLR,,0.00,WeatherDisplay:10.37,2013-06-14 03:18:00,
2013-06-13 23:23:00,64.9,48.4,29.89,NE,45,1.0,2.4,55,0.00,CLR,,0.00,WeatherDisplay:10.37,2013-06-14 03:23:00,
2013-06-13 23:28:00,64.9,48.4,29.89,NE,45,2.4,2.4,55,0.00,CLR,,0.00,WeatherDisplay:10.37,2013-06-14 03:28:00,
2013-06-13 23:33:00,64.9,48.4,29.90,NE,45,4.5,4.6,55,0.00,CLR,,0.00,WeatherDisplay:10.37,2013-06-14 03:33:00,
2013-06-13 23:38:00,64.8,48.2,29.90,NE,45,4.7,5.8,55,0.00,CLR,,0.00,WeatherDisplay:10.37,2013-06-14 03:38:00,
2013-06-13 23:43:00,64.6,48.0,29.90,NNE,22,5.5,5.8,55,0.00,CLR,,0.00,WeatherDisplay:10.37,2013-06-14 03:43:00,
2013-06-13 23:48:00,64.6,48.0,29.90,NNE,22,5.5,5.8,55,0.00,CLR,,0.00,WeatherDisplay:10.37,2013-06-14 03:48:00,
2013-06-13 23:53:00,63.9,47.4,29.90,NNE,22,3.3,6.1,55,0.00,CLR,,0.00,WeatherDisplay:10.37,2013-06-14 03:53:00,
2013-06-13 23:58:00,63.5,47.0,29.90,NNE,22,2.4,6.1,55,0.00,CLR,,0.00,WeatherDisplay:10.37,2013-06-14 03:58:00,